Location: Burbank
(38.7788°N, 114.0429°W)
Time: 06:14:35
(UTC+00:00)

Explorer 7 - Pass Details

Date: 18 May 2026
Orbit: 426 x 534 km, 50.2° (Epoch: 8 June)

Event Time Altitude Azimuth Distance (km) Brightness Sun altitude
Exits shadow 11:16:50 18° 244° (WSW) 1,139 7.8 -11.5°
Maximum altitude 11:19:17 69° 326° (NW) 479 6.5 -11.1°
Drops below altitude 10° 11:22:52 10° 50° (NE) 1,600 10.8 -10.6°
Sets 11:25:04 0° 53° (NE) 2,497 12.5 -10.2°
